Regional Weather Roundup
Issued by NWS

Home | Current Version | Previous Version | Text Only | Print | Product List | Glossary Off
Versions: 1 2 3 4 5 6 7 8 9 10 11 12 13 14 15 16 17 18 19 20 21 22 23 24 25 26 27 28 29 30 31 32 33 34 35 36 37 38 39 40 41 42 43 44 45 46 47 48 49 50

000
ASUS43 KDTX 251110
RWRMI
MICHIGAN HOURLY REGIONAL WEATHER ROUNDUP
NATIONAL WEATHER SERVICE DETROIT/PONTIAC MI
700 AM EDT MON JUL 25 2016

NOTE: "FAIR" INDICATES FEW OR NO CLOUDS BELOW 12,000 FEET WITH NO
SIGNIFICANT WEATHER AND/OR OBSTRUCTION TO VISIBILITY.

MIZ047>049-052>055-059>063-066>070-074>076-081>083-251200-
SOUTHEAST LOWER MICHIGAN

CITY           SKY/WX    TMP DP  RH WIND       PRES   REMARKS
ADRIAN         CLOUDY    72  70  93 SW6       29.94S
ALMA           MOCLDY    74  73  96 W7        29.90R
ANN ARBOR      CLOUDY    74  72  93 SW6       29.90F
BAD AXE        CLOUDY    75  73  93 W8        29.85S
CARO           CLOUDY    75  73  91 W5        29.86R
DETROIT CITY   CLOUDY    76  74  93 W7        29.87F
DETROIT        CLOUDY    76  71  85 W10       29.89S
FLINT          CLOUDY    80  70  71 W10       29.89R
GROSSE ILE     CLOUDY    74  71  89 W5        29.88S
HOWELL         CLOUDY    75  68  79 SW6       29.92S

CITY           SKY/WX    TMP DP  RH WIND       PRES   REMARKS
JACKSON        CLOUDY    73  70  90 W7        29.93S
LAMBERTVILLE   CLOUDY    75  72  90 W5        29.93S
LANSING        CLOUDY    76  68  76 W9        29.92R
LAPEER         FAIR      77  71  80 W7        29.88R
MASON          CLOUDY    75  66  75 W7        29.92S
MONROE         CLOUDY    74  71  90 W10       29.89F
MT. CLEMENS    LGT RAIN  79  75  89 W9        29.83F
PONTIAC        CLOUDY    76  70  82 W13       29.90R
PORT HOPE        N/A     76  73  91 W7        29.82R
PORT HURON     LGT RAIN  77  75  94 SW5       29.85S
TRI CITIES     CLOUDY    73  73 100 W7        29.88R FOG
MIDLAND        FAIR      72  72 100 SW6       29.87R
TROY           LGT RAIN  78  72  81 W9G17     29.90S
SAGINAW HB     CLOUDY    75  70  83 W8        29.86S
$$
MIZ043>046-050>051-056>058-064>065-071>073-077>080-251200-
SOUTHWEST LOWER MICHIGAN

CITY           SKY/WX    TMP DP  RH WIND       PRES   REMARKS
BATTLE CREEK   CLOUDY    72  69  90 W7        29.95R
BENTON HARBOR  CLOUDY    77  68  73 W12G20    29.94S
BIG RAPIDS     PTCLDY    69  69  99 W5        29.91R
COLDWATER      CLOUDY    71  70  95 SW6       29.97R
FREMONT        FAIR      69  69 100 W6        29.91R
HOLLAND        CLOUDY    74  68  81 W5        29.94R
GRAND RAPIDS   CLOUDY    74  69  85 W8        29.92R
IONIA          CLOUDY    74  68  81 SW9       29.91R
KALAMAZOO      CLOUDY    74  65  73 W7        29.95R
LUDINGTON      CLEAR     68  66  93 NW3       29.90R
MARSHALL       CLOUDY    73  71  95 SW5       29.94R
MOUNT PLEASANT CLOUDY    72  69  90 W5        29.88R
MUSKEGON       MOCLDY    73  68  84 NW7       29.92R
SOUTH HAVEN    CLOUDY    75  70  83 W9        29.94S
$$
MIZ016>042-251200-
NORTHERN LOWER MICHIGAN

CITY           SKY/WX    TMP DP  RH WIND       PRES   REMARKS
ALPENA         PTCLDY    71  65  81 W3        29.84R
BEAVER ISLAND  CLEAR     67  65  93 W7        29.86R
BELLAIRE       PTCLDY    71  67  88 W3        29.87R
CADILLAC       CLEAR     65  64  96 CALM      29.91R FOG
CHARLEVOIX     CLEAR     70  67  88 W10       29.89R
FRANKFORT      CLEAR     67  65  94 CALM      29.89S
GAYLORD        MOCLDY    68  63  84 CALM      29.88S
GRAYLING       CLOUDY    69  68  97 W5        29.89R FOG
HARBOR SPRINGS MOCLDY    69  67  96 W5        29.86R
HOUGHTON LAKE  CLOUDY    69  67  93 NW3       29.89R
MANISTEE       CLEAR     67  66  97 CALM      29.90R
OSCODA         PTCLDY    71  69  95 W6        29.83S
PELLSTON       PTCLDY    67  65  93 W5        29.85R
ROGERS CITY    PTCLDY    69  64  84 W6        29.84R
TRAVERSE CITY  PTCLDY    72  67  84 SW5       29.86R
$$
MIZ007>008-015-251200-
EASTERN UPPER MICHIGAN

CITY           SKY/WX    TMP DP  RH WIND       PRES   REMARKS
KINROSS        CLEAR     63  62  97 W5        29.83R
MACKINAC ISLAN PTCLDY    69  69 100 W7        29.84R
NEWBERRY       CLEAR     63  62  96 W7        29.84R
S. S. MARIE    CLEAR     65  62  90 W5        29.82R
MUNISING         N/A     70  60  70 W6        29.84R
$$
MIZ004>006-011>014-085-251200-
CENTRAL UPPER MICHIGAN

CITY           SKY/WX    TMP DP  RH WIND       PRES   REMARKS
MANISTIQUE     CLEAR     65  63  90 W8        29.85R
ESCANABA       CLEAR     64  61  88 W8        29.86R
MENOMINEE        N/A    N/A N/A N/A MISG        N/A
SAWYER-GWINN   CLEAR     63  59  88 W7        29.88R
$$
MIZ001>003-009>011-084-251200-
WESTERN UPPER MICHIGAN

CITY           SKY/WX    TMP DP  RH WIND       PRES   REMARKS
IRON MOUNTAIN  CLEAR     65  59  81 W9        29.90R
HOUGHTON       PTCLDY    65  58  78 W15       29.86R
COPPER HARBOR    N/A     68  59  73 N10G23    29.82R
IRONWOOD       CLEAR     61  59  94 W7        29.95R
$$

ABBREVIATIONS USED IN REMARKS
   TC - TEMPERATURE IN CELSIUS
  WCI - WIND CHILL INDEX
   HX - HEAT INDEX
  VSB - VISIBILITY




USA.gov is the U.S. government's official web portal to all federal, state and local government web resources and services.